Guthrie, OK

12:54 AM CDT on September 26, 2017 (GMT -0500)
Guthrie Municipal

Weather History for KGOK - February, 2013

Change the Weather History Date:

Sunday, February 24, 2013

  Actual Average Record
Temperature  
Mean Temperature 48 °F -  
Max Temperature 64 °F 57 °F 82 °F (1981)
Min Temperature 33 °F 32 °F 5 °F (1965)
Degree Days  
Heating Degree Days 16    
Moisture  
Dew Point 31 °F    
Average Humidity 52    
Maximum Humidity 72    
Minimum Humidity 33    
Precipitation  
Precipitation 0.00 in - - ()
Sea Level Pressure  
Sea Level Pressure 29.81 in    
Wind  
Wind Speed 11 mph (SE)    
Max Wind Speed 22 mph    
Max Gust Speed 36 mph    
Visibility 10 miles    
Events      
Averages and records for this station are not official NWS values.
T = Trace of Precipitation, MM = Missing Value Source: NWS Daily Summary

Daily Weather History Graph

Daily Weather History Graph

Search for Another Location

Airport or City:

Trip Planner

Search our weather history database for the weather conditions in past years. The results will help you decide how hot, cold, wet, or windy it might be!

Date:

Astronomy

Feb. 24, 2013 Rise Set
Actual Time 7:05 AM CST 6:20 PM CST
Civil Twilight 6:39 AM CST 6:46 PM CST
Nautical Twilight 6:10 AM CST 7:15 PM CST
Astronomical Twilight 5:40 AM CST 7:45 PM CST
Moon 5:32 PM CST (2/24) 6:02 AM CST (2/24)
Length of Visible Light 12h 06m
Length of Day
11h 14m
Waxing Gibbous, 99% of the Moon is Illuminated
Feb 24
Waxing Gibbous
Feb 25
Full
Mar 4
Last Quarter
Mar 11
New
Mar 19
First Quarter

Hourly Weather History & Observations

Time (CST) Temp. Windchill Dew Point Humidity Pressure Visibility Wind Dir Wind Speed Gust Speed Precip Events Conditions
12:53 AM 36.0 °F 29.0 °F 25.0 °F 64% 29.92 in 10.0 mi SE 9.2 mph - N/A   Clear
1:53 AM 35.1 °F 27.9 °F 25.0 °F 67% 29.91 in 10.0 mi SE 9.2 mph - N/A   Clear
2:53 AM 35.1 °F 27.4 °F 25.0 °F 67% 29.87 in 10.0 mi SE 10.4 mph - N/A   Clear
3:53 AM 34.0 °F 27.2 °F 25.0 °F 70% 29.87 in 10.0 mi SSE 8.1 mph - N/A   Clear
4:53 AM 34.0 °F 27.2 °F 25.0 °F 70% 29.86 in 10.0 mi SE 8.1 mph - N/A   Clear
5:53 AM 33.1 °F 26.1 °F 25.0 °F 72% 29.88 in 10.0 mi SSE 8.1 mph - N/A   Clear
6:53 AM 34.0 °F 26.6 °F 25.0 °F 70% 29.88 in 10.0 mi SSE 9.2 mph - N/A   Clear
7:53 AM 36.0 °F 28.0 °F 25.0 °F 64% 29.88 in 10.0 mi SSE 11.5 mph 18.4 mph N/A   Clear
8:53 AM 41.0 °F 33.1 °F 28.0 °F 60% 29.88 in 10.0 mi SSE 15.0 mph 20.7 mph N/A   Clear
9:53 AM 48.9 °F - 32.0 °F 52% 29.87 in 10.0 mi SSE 16.1 mph 24.2 mph N/A   Clear
10:53 AM 54.0 °F - 34.0 °F 47% 29.85 in 10.0 mi South 21.9 mph 28.8 mph N/A   Clear
11:53 AM 59.0 °F - 34.0 °F 39% 29.81 in 10.0 mi SSE 19.6 mph 31.1 mph N/A   Clear
12:53 PM 62.1 °F - 33.1 °F 34% 29.76 in 10.0 mi South 20.7 mph 35.7 mph N/A   Clear
1:53 PM 64.0 °F - 34.0 °F 33% 29.73 in 10.0 mi South 17.3 mph 31.1 mph N/A   Clear
2:53 PM 64.9 °F - 35.1 °F 33% 29.70 in 10.0 mi SSE 19.6 mph 27.6 mph N/A   Clear
3:53 PM 64.9 °F - 35.1 °F 33% 29.70 in 10.0 mi SSE 18.4 mph 27.6 mph N/A   Clear
4:53 PM 63.0 °F - 37.0 °F 38% 29.71 in 10.0 mi SE 13.8 mph 20.7 mph N/A   Mostly Cloudy
5:53 PM 61.0 °F - 37.0 °F 41% 29.72 in 10.0 mi SSE 13.8 mph - N/A   Overcast
6:53 PM 55.9 °F - 37.0 °F 49% 29.74 in 10.0 mi ESE 6.9 mph - N/A   Clear
7:53 PM 55.9 °F - 36.0 °F 47% 29.78 in 10.0 mi ESE 6.9 mph - N/A   Overcast
8:53 PM 55.0 °F - 36.0 °F 49% 29.75 in 10.0 mi ESE 9.2 mph - N/A   Overcast
9:53 PM 54.0 °F - 35.1 °F 49% 29.75 in 10.0 mi ESE 10.4 mph - N/A   Overcast
10:53 PM 54.0 °F - 34.0 °F 47% 29.76 in 10.0 mi ESE 9.2 mph - N/A   Overcast
11:53 PM 52.0 °F - 34.0 °F 50% 29.77 in 10.0 mi Calm Calm - N/A   Overcast